Location: Nashville
(36.1660°N, 86.7840°W)
Time: 03:13:22
(UTC-05:00)

LO-87 - Visible Passes

Search period start: 16 May 2022 00:00
Search period end: 26 May 2022 00:00
Orbit: 456 x 473 km, 97.4° (Epoch: 15 May)

Date Brightness Start Highest point End Pass type
(mag) Time Alt. Az. Time Alt. Az. Time Alt. Az.
19 May ? 00:20:01 11° N 00:20:01 11° N 00:20:10 10° N visible
19 May ? 23:49:02 10° NNE 23:49:02 10° NNE 23:49:03 10° NNE visible
22 May ? 00:20:55 12° N 00:20:55 12° N 00:21:13 10° N visible
22 May ? 23:49:52 11° NNE 23:49:52 11° NNE 23:50:02 10° NNE visible
25 May ? 00:21:36 13° N 00:21:36 13° N 00:22:02 10° N visible
25 May ? 23:50:29 12° NNE 23:50:29 12° NNE 23:50:48 10° NNE visible
